Location: Newark
(23.1300°N, 73.6109°E)
Time: 13:24:51
(UTC+00:00)

Envisat - Pass Details

Date: 24 July 2021
Orbit: 764 x 766 km, 98.2° (Epoch: 17 September)

Event Time Altitude Azimuth Distance (km) Brightness Sun altitude
Rises 23:10:12 0° 37° (NE) 3,228 7.5 -17.9°
Reaches altitude 10° 23:13:22 10° 58° (ENE) 2,299 6.8 -17.3°
Maximum altitude 23:16:31 17° 96° (E) 1,883 5.7 -16.6°
Drops below altitude 10° 23:19:39 10° 135° (SE) 2,292 5.6 -16.0°
Sets 23:22:46 0° 156° (SSE) 3,215 6.2 -15.4°
